Location: *
(45.1961°N, 1.9694°E)
Time: 15:00:11
(UTC+00:00)

Cosmos 1980 Rocket - Pass Details

Date: 25 August 2019
Orbit: 829 x 850 km, 71.0° (Epoch: 19 September)

Event Time Altitude Azimuth Distance (km) Brightness Sun altitude
Rises 21:40:36 0° 329° (NNW) 3,395 6.7 -26.6°
Reaches altitude 10° 21:43:07 10° 323° (NW) 2,459 5.6 -26.9°
Maximum altitude 21:48:27 46° 252° (WSW) 1,124 2.9 -27.4°
Enters shadow 21:49:09 43° 231° (SW) 1,159 2.8 -27.5°
